Regional Weather Roundup
Issued by NWS

Home | Current Version | Previous Version | Text Only | Print | Product List | Glossary Off
Versions: 1 2 3 4 5 6 7 8 9 10 11 12 13 14 15 16 17 18 19 20 21 22 23 24 25 26 27 28 29 30 31 32 33 34 35 36 37 38 39 40 41 42 43 44 45 46 47 48 49 50

000
ASUS43 KIND 160809
RWRIN

WEATHER ROUNDUP FOR INDIANA
NATIONAL WEATHER SERVICE INDIANAPOLIS IN
400 AM EDT WED APR 16 2014

NOTE: "FAIR" INDICATES FEW OR NO CLOUDS BELOW 12,000 FEET WITH NO
SIGNIFICANT WEATHER AND/OR OBSTRUCTIONS TO VISIBILITY.

* - STATION DOES NOT REPORT WEATHER SUCH AS PRECIPITATION OR FOG.

+ - STATION NOT QUALITY CONTROLLED BY THE NATIONAL WEATHER SERVICE.
    USE DATA WITH CAUTION...ESPECIALLY DEWPOINT AND RELATIVE
    HUMIDITY OBSERVATIONS.

INZ001>003-010>013-019-020-160900-
NORTHWEST INDIANA

CITY           SKY/WX    TMP DP  RH WIND       PRES   REMARKS
GARY /AIRPORT/ CLEAR     31  21  66 SE6       30.26R WCI  25
LA PORTE +     PTCLDY    24  17  74 CALM      30.28R
MICHIGAN CITY+ CLEAR     30  14  51 SE3       30.27R
MONTICELLO +   CLEAR     29  19  66 SE3       30.27R
RENSSELAER +   CLEAR     30  21  69 CALM      30.28R
VALPARAISO     CLEAR     23  16  74 E3        30.27R

$$

LMZ046-743>745-160900-
SOUTHERN LAKE MICHIGAN

STATION/POSITION TIME  TEMP WIND        PRES
                       AIR  DIR/SP/G
                 (UTC) (F)  (DEG/KT/KT) (MB)
MICHIGAN CITY    0800   30  140/  9/ 11   N/A

$$

INZ004-005-014>016-021>024-160900-
NORTH CENTRAL INDIANA

CITY           SKY/WX    TMP DP  RH WIND       PRES   REMARKS
GOSHEN         CLEAR     26  16  65 SE3       30.28R
LOGANSPORT +   CLEAR     27  19  74 SE6       30.30R WCI  20
PERU/GRISSOM   CLEAR     25  20  79 SE6       30.29R WCI  18
ROCHESTER +    CLEAR     32  19  59 SE8       30.30R WCI  25
SOUTH BEND     CLEAR     27  14  58 SE5       30.28R WCI  22
WARSAW +       CLEAR     27  16  63 CALM      30.29R

$$

INZ006>009-017-018-025>027-160900-
NORTHEAST INDIANA

CITY           SKY/WX    TMP DP  RH WIND       PRES   REMARKS
ANGOLA *+      CLEAR     21  18  86 CALM      30.27R
AUBURN +       CLEAR     25  14  63 CALM      30.30R
FORT WAYNE     CLEAR     24  17  74 S3        30.30R

$$

INZ028-029-035-036-043>045-051>053-160900-
WEST CENTRAL INDIANA

CITY           SKY/WX    TMP DP  RH WIND       PRES   REMARKS
GREENCASTLE +  CLEAR     27  19  74 SE3       30.29R
LAFAYETTE      CLEAR     28  19  69 CALM      30.28R
TERRE HAUTE    CLEAR     30  21  69 SE3       30.29R

$$

INZ030>032-037>040-046>048-054>057-064-065-160900-
CENTRAL INDIANA

CITY           SKY/WX    TMP DP  RH WIND       PRES   REMARKS
CP ATTERBURY + CLEAR     27  25  93 CALM      30.32R
INDIANAPOLIS   CLEAR     27  19  72 SE6       30.29R WCI  20
-EAGLE CREEK   CLEAR     29  19  66 SE3       30.29R
KOKOMO *+      CLEAR     27  19  74 S6        30.29R WCI  20
MARION +       CLEAR     25  17  70 S5        30.30R WCI  20
MT COMFORT *+  CLEAR     28  19  69 SE5       30.30R WCI  23
SHELBYVILLE    CLEAR     30  19  63 SE6       30.30R WCI  24
ZIONSVILLE +   CLEAR     26  20  79 SE3       30.29R

$$

INZ033-034-041-042-049-050-058-059-160900-
EAST CENTRAL INDIANA

CITY           SKY/WX    TMP DP  RH WIND       PRES   REMARKS
MUNCIE         CLEAR     27  14  58 S5        30.30R WCI  22

$$

INZ060-061-067>069-081>083-085>088-160900-
SOUTHWEST INDIANA

CITY           SKY/WX    TMP DP  RH WIND       PRES   REMARKS
EVANSVILLE     CLEAR     34  28  79 CALM      30.31R
HUNTINGBURG *+ CLEAR     30  19  64 SE6       30.31R WCI  24
WASHINGTON +   CLEAR     32  26  77 SE5       30.30R WCI  27

$$

INZ062-063-066-070>080-084-089>092-160900-
SOUTH CENTRAL AND SOUTHEAST INDIANA

CITY           SKY/WX    TMP DP  RH WIND       PRES   REMARKS
BLOOMINGTON    CLEAR     29  20  69 SE3       30.29R

$$




USA.gov is the U.S. government's official web portal to all federal, state and local government web resources and services.